Location: Oshawa
(43.9000°N, 78.8670°W)
Time: 05:06:18
(UTC-04:00)

Iridium 98 - Visible Passes

Search period start: 28 August 2014 00:00
Search period end: 07 September 2014 00:00
Orbit: 773 x 788 km, 86.4° (Epoch: 23 August)

Date Brightness Start Highest point End Pass type
(mag) Time Alt. Az. Time Alt. Az. Time Alt. Az.
28 Aug 8.5 21:57:38 10° NW 22:01:21 18° WNW 22:05:05 10° WSW visible
29 Aug 5.9 20:19:16 10° N 20:25:15 86° E 20:31:14 10° S visible
29 Aug 8.7 22:05:12 10° NW 22:08:08 14° WNW 22:11:05 10° WSW visible
30 Aug 6.3 20:30:30 10° N 20:36:30 71° W 20:42:30 10° S visible
31 Aug 7.0 20:46:12 10° NNW 20:52:02 49° W 20:57:52 10° SSW visible
01 Sep 7.9 21:06:13 10° NNW 21:11:32 31° W 21:16:52 10° SW visible
02 Sep 8.7 21:30:34 10° NW 21:34:45 19° WNW 21:38:56 10° WSW visible
03 Sep 6.5 20:11:15 10° N 20:17:30 69° W 20:23:45 10° S visible
03 Sep 9.4 22:01:16 10° WNW 22:01:25 10° WNW 22:01:35 10° WNW visible
04 Sep 7.7 20:42:04 10° NNW 20:47:48 37° W 20:53:32 10° SSW visible
05 Sep 8.8 21:16:56 10° NW 21:21:11 19° WNW 21:25:27 10° WSW visible
06 Sep 7.0 20:06:46 10° N 20:13:04 56° W 20:19:23 10° SSW visible
